TimeEST,TemperatureF,Dew PointF,Humidity,Sea Level PressureIn,VisibilityMPH,Wind Direction,Wind SpeedMPH,Gust SpeedMPH,PrecipitationIn,Events,Conditions,WindDirDegrees,DateUTC
12:53 AM,33.1,27.0,78,30.21,10.0,North,5.8,-,N/A,,Overcast,350,2012-12-09 05:53:00
1:53 AM,32.0,25.0,75,30.24,10.0,North,10.4,-,N/A,,Overcast,10,2012-12-09 06:53:00
2:53 AM,30.9,23.0,72,30.27,10.0,North,10.4,-,N/A,,Overcast,10,2012-12-09 07:53:00
3:53 AM,30.0,21.0,69,30.29,10.0,North,11.5,-,N/A,,Overcast,360,2012-12-09 08:53:00
4:13 AM,30.2,19.4,64,30.24,10.0,NNE,12.7,-,N/A,,Scattered Clouds,20,2012-12-09 09:13:00
4:53 AM,28.9,19.9,69,30.28,10.0,NNE,8.1,-,N/A,,Clear,20,2012-12-09 09:53:00
5:53 AM,28.9,19.9,69,30.30,10.0,NE,4.6,-,N/A,,Partly Cloudy,50,2012-12-09 10:53:00
6:53 AM,28.9,21.9,75,30.31,10.0,Calm,Calm,-,N/A,,Clear,0,2012-12-09 11:53:00
7:08 AM,28.4,21.2,74,30.26,10.0,Calm,Calm,-,N/A,,Mostly Cloudy,0,2012-12-09 12:08:00
7:53 AM,28.0,21.9,78,30.30,10.0,East,3.5,-,N/A,,Mostly Cloudy,80,2012-12-09 12:53:00
8:53 AM,28.9,19.9,69,30.30,10.0,NE,5.8,-,N/A,,Overcast,50,2012-12-09 13:53:00
9:53 AM,30.0,19.9,66,30.29,10.0,NE,8.1,-,N/A,,Mostly Cloudy,50,2012-12-09 14:53:00
10:53 AM,32.0,21.9,66,30.27,10.0,East,11.5,-,N/A,,Mostly Cloudy,80,2012-12-09 15:53:00
11:53 AM,33.1,25.0,72,30.22,10.0,East,11.5,-,N/A,,Overcast,100,2012-12-09 16:53:00
12:53 PM,34.0,27.0,75,30.18,10.0,East,13.8,-,N/A,,Overcast,90,2012-12-09 17:53:00
1:53 PM,35.6,28.4,75,30.11,10.0,East,12.7,-,N/A,,Overcast,80,2012-12-09 18:53:00
2:53 PM,36.0,28.0,73,30.13,10.0,East,15.0,-,N/A,,Overcast,80,2012-12-09 19:53:00
3:37 PM,35.6,28.4,75,30.07,8.0,East,11.5,-,0.00,,Light Ice Pellets,80,2012-12-09 20:37:00
3:53 PM,35.1,28.9,78,30.11,7.0,East,16.1,-,0.01,Rain,Light Rain,80,2012-12-09 20:53:00
4:12 PM,33.8,28.4,81,30.05,3.0,East,17.3,-,0.05,Rain,Light Rain,80,2012-12-09 21:12:00
4:53 PM,34.0,30.0,85,30.06,7.0,East,15.0,24.2,0.09,Rain,Light Rain,80,2012-12-09 21:53:00
5:53 PM,34.0,30.0,85,30.01,8.0,East,17.3,27.6,0.03,Rain,Light Rain,80,2012-12-09 22:53:00
6:32 PM,33.8,30.2,87,29.93,8.0,East,19.6,26.5,0.00,Rain,Light Rain,100,2012-12-09 23:32:00
6:53 PM,34.0,30.9,89,29.97,5.0,East,18.4,29.9,0.01,Rain,Light Rain,100,2012-12-09 23:53:00
7:22 PM,35.6,32.0,87,29.89,5.0,East,17.3,25.3,0.05,Rain,Rain,100,2012-12-10 00:22:00
7:53 PM,35.1,32.0,89,29.90,4.0,East,15.0,21.9,0.11,Rain,Rain,100,2012-12-10 00:53:00
8:11 PM,35.6,32.0,87,29.85,4.0,East,11.5,19.6,0.05,Rain,Rain,100,2012-12-10 01:11:00
8:38 PM,35.6,33.8,93,29.82,5.0,ESE,12.7,-,0.06,Rain,Light Rain,110,2012-12-10 01:38:00
8:53 PM,35.1,33.1,92,29.86,4.0,ESE,12.7,-,0.06,Rain,Light Rain,110,2012-12-10 01:53:00
9:25 PM,35.6,33.8,93,29.79,6.0,East,8.1,-,0.00,Rain,Light Rain,100,2012-12-10 02:25:00
9:43 PM,35.6,33.8,93,29.78,3.0,ESE,11.5,-,0.00,Rain,Light Rain,120,2012-12-10 02:43:00
9:53 PM,36.0,34.0,93,29.82,3.0,SE,9.2,-,0.01,Rain,Light Rain,130,2012-12-10 02:53:00
10:53 PM,37.9,36.0,93,29.79,4.0,SE,4.6,-,0.00,,Light Drizzle,130,2012-12-10 03:53:00
11:53 PM,39.9,37.9,93,29.73,7.0,SE,4.6,-,0.00,,Overcast,140,2012-12-10 04:53:00